Regional Weather Roundup
Issued by NWS Boston, MA

Home | Current Version | Previous Version | Text Only | Print | Product List | Glossary On
Versions: 1 2 3 4 5 6 7 8 9 10 11 12 13 14 15 16 17 18 19 20 21 22 23 24 25 26 27 28
000
ASUS41 KBOX 060310
RWRBOX

REGIONAL WEATHER ROUNDUP
NATIONAL WEATHER SERVICE TAUNTON MA
1000 PM EST MON DEC 05 2016

NOTE:  "FAIR" INDICATES FEW OR NO CLOUDS BELOW 12,000 FEET WITH NO
SIGNIFICANT WEATHER AND/OR OBSTRUCTIONS TO VISIBILITY.

MAZALL-060400-
EASTERN MASSACHUSETTS

CITY           SKY/WX    TMP DP  RH WIND       PRES   REMARKS
BOSTON         CLEAR     39  32  76 W14       29.98R WCI  31
BEVERLY        CLEAR     34  32  92 W6        29.97R WCI  29
LAWRENCE       CLEAR     33  31  92 SW8       29.98R WCI  26
BEDFORD        CLEAR     33  29  85 W5        29.97R WCI  29
BLUE HILL        N/A     33  30  88 W15       29.95R WCI  23
NORWOOD        CLEAR     34  31  88 W8        29.99R WCI  27
MARSHFIELD     CLEAR     36  32  87 VRB6G12   29.97S WCI  31
PLYMOUTH       CLEAR     34  31  88 W7        29.98R WCI  28
TAUNTON        CLEAR     35  31  85 W5        29.99R WCI  31
NEW BEDFORD    CLEAR     35  30  82 W7        29.99R WCI  29
$$

MAZALL-060400-
CAPE COD AND THE ISLANDS

CITY           SKY/WX    TMP DP  RH WIND       PRES   REMARKS
FALMOUTH       CLEAR     37  32  81 MISG      29.97
HYANNIS        CLEAR     39  31  72 NW13G24   29.94S WCI  31
CHATHAM        CLEAR     41  34  76 NW10G20   29.96R
PROVINCETOWN   CLEAR     43  35  73 NW24G30   29.96R
NANTUCKET      CLEAR     41  33  73 NW14      29.97R
MARTHAS VNYRD  CLEAR     41  33  73 NW15      29.98R
$$

MAZALL-060400-
CENTRAL AND WESTERN MASSACHUSETTS

CITY           SKY/WX    TMP DP  RH WIND       PRES   REMARKS
WORCESTER      CLOUDY    34  29  82 W9        29.97S WCI  27
FITCHBURG      CLEAR     34  27  75 W7        29.99R WCI  28
ORANGE         CLOUDY    29  29 100 SE6       29.98S WCI  23
SPRINGFIELD    MOCLDY    37  31  78 SW3       30.00S
WESTFIELD      CLOUDY    32  32 100 CALM      30.02S
NORTH ADAMS    CLOUDY    37  30  75 W7        30.00R WCI  32
PITTSFIELD     CLOUDY    35  29  78 W12       29.98S WCI  27
$$

RIZALL-060400-
RHODE ISLAND

CITY           SKY/WX    TMP DP  RH WIND       PRES   REMARKS
PROVIDENCE     CLEAR     39  30  70 W7        30.02R
NEWPORT        CLEAR     42  32  67 W14G23    30.00R
BLOCK ISLAND   CLEAR     44  32  62 NW16G23   30.03R
SMITHFIELD     CLEAR     36  30  79 W9        30.00R WCI  29
WESTERLY       CLEAR     38  30  73 W3        30.04R
$$

CTZALL-060400-
CONNECTICUT

CITY           SKY/WX    TMP DP  RH WIND       PRES   REMARKS
BRADLEY INTL   CLOUDY    36  29  75 W3        30.03R
HARTFORD       CLOUDY    40  31  70 W7        30.04R
BRIDGEPORT     CLEAR     40  30  67 W5        30.07R
DANBURY        CLEAR     28  26  92 W6        30.06  WCI  22
GROTON         CLEAR     42  34  73 W8        30.04R
NEW HAVEN      CLEAR     41  33  73 CALM      30.06R
CHESTER        MOCLDY    37  32  81 W6        30.04R
MERIDEN        CLOUDY    32  28  85 CALM      30.05S
WILLIMANTIC    CLOUDY    31  30  96 CALM      30.04R
OXFORD         CLEAR     30  25  80 CALM      30.05S
$$

MEZ002-015-021-024-NHZ003-005-008-011-012-014-VTZ005-008-060400-
NORTHERN NEW ENGLAND

CITY           SKY/WX    TMP DP  RH WIND       PRES   REMARKS
PORTLAND ME    PTCLDY    26  23  88 W3        29.94R
BANGOR ME      LGT SNOW  26  24  92 N6        29.91S FOG     WCI  19
CONCORD NH     FOG       24  20  84 CALM      29.96S VSB 1/4
MANCHESTER NH  PTCLDY    26  23  88 CALM      29.96R
NASHUA NH      CLEAR     22  21  96 CALM      29.98R
PORTSMOUTH NH  PTCLDY    30  28  92 W8        29.94R WCI  22
JAFFREY NH     PTCLDY    29  26  89 S6        29.96R WCI  23
KEENE NH       CLEAR     25  23  93 CALM      29.99S FOG
BURLINGTON VT  CLOUDY    33  30  88 N3        30.01R
MT. WASHINGTON BLWGSNOW  12  12 100 NW58G66     N/A  VSB 0   WCI -15
$$

NYZ052-076-060400-
EASTERN NEW YORK

CITY           SKY/WX    TMP DP  RH WIND       PRES   REMARKS
ALBANY         MOCLDY    38  31  76 W7        30.04R
NEW YORK CITY  MOCLDY    46  32  58 NW8       30.09R
$$

ANZALL-060400-
MARINE OBSERVATIONS

STATION/POSITION TIME  TEMP    WIND        PRES    VSBY  WAVE
                       AIR SEA DIR/SP/G                  HT/PER
                 (UTC) (F)     (DEG/KT/KT) (MB)    (MI)  (FT/S)
BOSTON BUOY      0250   43 50  280/ 23/ 27 1013.4R         3/ 4
BUZZARDS BAY     0200   43     310/ 22/ 23 1015.2R
NANTUCKET SOUND  NOT AVBL
MASS BAY-STELLWA 0204   42 49  280/ 21/ 25 1013.5R  1 7/8  4/ 3
ISLE OF SHOALS   0200   36     270/ 16/ 17 1013.4R
S OF BLOCK IS    0225      55                N/A           6/ 5
$$

......................KEY.........................
  SKY/WX - SKY CONDITION/PRESENT WEATHER
  TMP    - TEMPERATURE IN FAHRENHEIT
  DWPT   - DEWPOINT IN FAHRENHEIT
  RH     - RELATIVE HUMIDITY IN PERCENT
  WIND   - DIRECTION AND SPEED IN MPH
  PRES   - MEAN SEA LEVEL PRESSURE IN INCHES OF HG
  WCI    - WIND CHILL INDEX
  VSB    - VISIBILITY IN MILES
  HX     - HEAT INDEX
  TC     - TEMPERATURE IN CELSIUS
  VRB    - VARIABLE WIND DIRECTION
  N/A    - NOT AVAILABLE




USA.gov is the U.S. government's official web portal to all federal, state and local government web resources and services.